VJC234 VVTS-VVDN

Flight info

Callsign VJC234
Flight time 1h 17m
Altitude 39000
Route PATMA5A PATMA Q2 SADAS/K0767F290 Q7 MUMGA Q1 SADIN SADIN2L
Aircraft A321/M-SDE3FGHIRWY/LB1

Departure

Time 2026-04-23 06:04
Airport Tan Son Nhat International Airport (VVTS)

Arrival

Time 2026-04-23 07:21
Airport Da Nang International Airport (VVDN)
Time Latitude Longitude Altitude Speed Heading
2026-04-23 05:48 10.81602 106.66140 30 ft 0 kts 95°
2026-04-23 05:56 10.81603 106.66129 30 ft 2 kts 95°
2026-04-23 05:56 10.81604 106.66114 30 ft 2 kts 95°
2026-04-23 05:56 10.81606 106.66098 30 ft 2 kts 95°
2026-04-23 05:57 10.81607 106.66084 30 ft 1 kts 95°
2026-04-23 05:57 10.81608 106.66074 30 ft 2 kts 82°
2026-04-23 05:57 10.81603 106.66059 30 ft 2 kts 55°
2026-04-23 05:57 10.81592 106.66048 29 ft 2 kts 29°
2026-04-23 05:58 10.81580 106.66044 29 ft 0 kts
2026-04-23 05:58 10.81574 106.66044 29 ft 1 kts
2026-04-23 05:58 10.81573 106.66044 29 ft 0 kts
2026-04-23 06:00 10.81591 106.66045 29 ft 5 kts
2026-04-23 06:00 10.81653 106.66050 29 ft 12 kts
2026-04-23 06:00 10.81744 106.66077 29 ft 15 kts 52°
2026-04-23 06:00 10.81791 106.66185 29 ft 17 kts 68°
2026-04-23 06:01 10.81836 106.66305 29 ft 19 kts 70°
2026-04-23 06:01 10.81885 106.66433 29 ft 19 kts 69°
2026-04-23 06:01 10.81934 106.66566 30 ft 19 kts 70°
2026-04-23 06:01 10.81985 106.66698 29 ft 20 kts 69°
2026-04-23 06:02 10.82033 106.66830 32 ft 19 kts 69°
2026-04-23 06:02 10.82118 106.66934 34 ft 19 kts 39°
2026-04-23 06:02 10.82230 106.67007 35 ft 19 kts
2026-04-23 06:02 10.82325 106.66951 34 ft 14 kts 293°
2026-04-23 06:03 10.82332 106.66862 32 ft 11 kts 257°
2026-04-23 06:03 10.82307 106.66791 32 ft 9 kts 250°
2026-04-23 06:03 10.82285 106.66733 32 ft 10 kts 249°
2026-04-23 06:03 10.82227 106.66576 32 ft 50 kts 249°
2026-04-23 06:04 10.82025 106.66042 29 ft 109 kts 249°
2026-04-23 06:04 10.81697 106.65147 47 ft 158 kts 247°
2026-04-23 06:04 10.81287 106.64100 565 ft 160 kts 245°
2026-04-23 06:04 10.80879 106.63044 1143 ft 164 kts 246°
2026-04-23 06:05 10.80468 106.61967 1759 ft 165 kts 246°
2026-04-23 06:05 10.80047 106.60874 2132 ft 175 kts 246°
2026-04-23 06:05 10.79581 106.59666 2439 ft 191 kts 247°
2026-04-23 06:05 10.79078 106.58354 2754 ft 208 kts 247°
2026-04-23 06:06 10.78530 106.56917 3027 ft 229 kts 249°
2026-04-23 06:06 10.78238 106.55270 3370 ft 249 kts 274°
2026-04-23 06:06 10.78808 106.53554 3730 ft 268 kts 304°
2026-04-23 06:06 10.80217 106.52267 4223 ft 279 kts 334°
2026-04-23 06:07 10.82018 106.51569 4973 ft 280 kts 341°
2026-04-23 06:07 10.83864 106.50897 5740 ft 282 kts 341°
2026-04-23 06:07 10.85702 106.50206 6480 ft 284 kts 341°
2026-04-23 06:07 10.87548 106.49500 7213 ft 286 kts 340°
2026-04-23 06:08 10.89457 106.48907 7897 ft 288 kts 355°
2026-04-23 06:08 10.91418 106.49146 8576 ft 287 kts 22°
2026-04-23 06:08 10.93070 106.50227 9263 ft 287 kts 47°
2026-04-23 06:08 10.94329 106.51822 9968 ft 289 kts 53°
2026-04-23 06:09 10.95551 106.53465 10485 ft 297 kts 53°
2026-04-23 06:09 10.96813 106.55145 10742 ft 303 kts 53°
2026-04-23 06:09 10.98109 106.56848 10787 ft 302 kts 53°
2026-04-23 06:09 10.99398 106.58534 10799 ft 301 kts 52°
2026-04-23 06:10 11.00702 106.60233 11000 ft 308 kts 52°
2026-04-23 06:10 11.02021 106.61951 11661 ft 309 kts 52°
2026-04-23 06:10 11.03343 106.63674 12379 ft 314 kts 52°
2026-04-23 06:10 11.04692 106.65430 13339 ft 317 kts 52°
2026-04-23 06:11 11.06041 106.67188 14279 ft 320 kts 52°
2026-04-23 06:11 11.07417 106.68981 15039 ft 328 kts 52°
2026-04-23 06:11 11.08828 106.70821 15926 ft 330 kts 52°
2026-04-23 06:11 11.10196 106.72604 17072 ft 321 kts 53°
2026-04-23 06:12 11.11541 106.74358 18196 ft 310 kts 53°
2026-04-23 06:12 11.12833 106.76045 19237 ft 300 kts 53°
2026-04-23 06:12 11.15304 106.79271 20962 ft 287 kts 53°
2026-04-23 06:13 11.16538 106.80883 21520 ft 291 kts 53°
2026-04-23 06:13 11.17785 106.82511 22039 ft 296 kts 53°
2026-04-23 06:13 11.19061 106.84179 22571 ft 300 kts 53°
2026-04-23 06:13 11.20353 106.85867 23130 ft 304 kts 53°
2026-04-23 06:14 11.21641 106.87550 23680 ft 307 kts 53°
2026-04-23 06:14 11.22959 106.89271 24216 ft 310 kts 53°
2026-04-23 06:14 11.24297 106.91019 24747 ft 312 kts 53°
2026-04-23 06:14 11.25629 106.92761 25259 ft 315 kts 53°
2026-04-23 06:15 11.26979 106.94526 25750 ft 318 kts 53°
2026-04-23 06:15 11.28348 106.96315 26226 ft 321 kts 53°
2026-04-23 06:15 11.29719 106.98106 26695 ft 324 kts 53°
2026-04-23 06:15 11.31095 106.99907 27147 ft 327 kts 52°
2026-04-23 06:16 11.32506 107.01754 27594 ft 329 kts 52°
2026-04-23 06:16 11.33908 107.03587 28026 ft 332 kts 51°
2026-04-23 06:16 11.35430 107.05365 28463 ft 334 kts 46°
2026-04-23 06:16 11.37138 107.07000 28897 ft 336 kts 40°
2026-04-23 06:17 11.38973 107.08469 29307 ft 338 kts 37°
2026-04-23 06:17 11.40865 107.09911 29713 ft 341 kts 37°
2026-04-23 06:17 11.42757 107.11346 30096 ft 343 kts 37°
2026-04-23 06:17 11.44686 107.12810 30470 ft 346 kts 37°
2026-04-23 06:18 11.46630 107.14289 30836 ft 348 kts 37°
2026-04-23 06:18 11.48568 107.15767 31199 ft 351 kts 37°
2026-04-23 06:18 11.50532 107.17265 31554 ft 353 kts 37°
2026-04-23 06:18 11.52507 107.18774 31899 ft 355 kts 37°
2026-04-23 06:19 11.54495 107.20293 32237 ft 357 kts 37°
2026-04-23 06:19 11.56492 107.21821 32573 ft 360 kts 37°
2026-04-23 06:19 11.58501 107.23357 32923 ft 362 kts 37°
2026-04-23 06:19 11.60518 107.24899 33280 ft 363 kts 37°
2026-04-23 06:20 11.62525 107.26434 33616 ft 365 kts 37°
2026-04-23 06:20 11.64574 107.28002 33959 ft 367 kts 37°
2026-04-23 06:20 11.66633 107.29577 34282 ft 369 kts 37°
2026-04-23 06:20 11.68675 107.31140 34603 ft 370 kts 37°
2026-04-23 06:21 11.70733 107.32714 34934 ft 371 kts 37°
2026-04-23 06:21 11.72816 107.34309 35246 ft 373 kts 37°
2026-04-23 06:21 11.74906 107.35909 35545 ft 374 kts 37°
2026-04-23 06:21 11.76972 107.37492 35811 ft 376 kts 37°
2026-04-23 06:22 11.79082 107.39108 36062 ft 378 kts 37°
2026-04-23 06:22 11.81171 107.40709 36296 ft 380 kts 37°
2026-04-23 06:22 11.83294 107.42336 36523 ft 381 kts 37°
2026-04-23 06:22 11.85412 107.43959 36755 ft 383 kts 37°
2026-04-23 06:23 11.87562 107.45608 36970 ft 384 kts 37°
2026-04-23 06:23 11.89702 107.47249 37181 ft 386 kts 37°
2026-04-23 06:23 11.91848 107.48895 37381 ft 387 kts 37°
2026-04-23 06:23 11.94017 107.50558 37577 ft 389 kts 37°
2026-04-23 06:24 11.96169 107.52209 37780 ft 390 kts 37°
2026-04-23 06:24 11.98337 107.53873 37969 ft 391 kts 37°
2026-04-23 06:24 12.00532 107.55557 38159 ft 391 kts 37°
2026-04-23 06:24 12.02714 107.57233 38330 ft 392 kts 37°
2026-04-23 06:25 12.04887 107.58901 38475 ft 394 kts 37°
2026-04-23 06:25 12.07070 107.60577 38632 ft 395 kts 37°
2026-04-23 06:25 12.09275 107.62273 38765 ft 397 kts 37°
2026-04-23 06:25 12.11490 107.63975 38889 ft 398 kts 37°
2026-04-23 06:26 12.15952 107.67406 38976 ft 405 kts 37°
2026-04-23 06:26 12.20514 107.70915 39002 ft 413 kts 37°
2026-04-23 06:27 12.25142 107.74474 39038 ft 420 kts 37°
2026-04-23 06:27 12.30080 107.77769 39040 ft 427 kts 28°
2026-04-23 06:28 12.35568 107.80027 38995 ft 429 kts 17°
2026-04-23 06:28 12.41491 107.81141 38954 ft 437 kts
2026-04-23 06:29 12.47659 107.81349 38908 ft 445 kts
2026-04-23 06:29 12.53886 107.81454 38872 ft 450 kts
2026-04-23 06:30 12.60167 107.81568 38861 ft 453 kts
2026-04-23 06:30 12.66487 107.81688 38847 ft 453 kts
2026-04-23 06:31 12.72837 107.81812 38834 ft 454 kts
2026-04-23 06:31 12.79143 107.81937 38820 ft 454 kts
2026-04-23 06:32 12.85485 107.82062 38816 ft 454 kts
2026-04-23 06:32 12.91848 107.82187 38809 ft 454 kts
2026-04-23 06:33 12.98128 107.82310 38810 ft 453 kts
2026-04-23 06:33 13.04472 107.82433 38811 ft 453 kts
2026-04-23 06:34 13.10774 107.82556 38813 ft 453 kts
2026-04-23 06:34 13.17106 107.82680 38812 ft 454 kts
2026-04-23 06:35 13.23411 107.82855 38812 ft 454 kts
2026-04-23 06:35 13.29711 107.83657 38817 ft 453 kts 11°
2026-04-23 06:36 13.35830 107.85238 38824 ft 452 kts 18°
2026-04-23 06:36 13.41682 107.87564 38830 ft 452 kts 24°
2026-04-23 06:37 13.47418 107.90281 38845 ft 453 kts 25°
2026-04-23 06:37 13.53108 107.92998 38849 ft 453 kts 25°
2026-04-23 06:38 13.58866 107.95744 38863 ft 454 kts 25°
2026-04-23 06:38 13.64575 107.98466 38878 ft 453 kts 25°
2026-04-23 06:39 13.70321 108.01205 38895 ft 453 kts 25°
2026-04-23 06:39 13.76032 108.03931 38902 ft 453 kts 25°
2026-04-23 06:40 13.81739 108.06655 38902 ft 452 kts 25°
2026-04-23 06:40 13.87469 108.09392 38908 ft 453 kts 25°
2026-04-23 06:41 13.93186 108.12076 38913 ft 454 kts 22°
2026-04-23 06:41 13.99193 108.14143 38916 ft 454 kts 14°
2026-04-23 06:42 14.05432 108.15327 38929 ft 454 kts
2026-04-23 06:42 14.11757 108.15671 38933 ft 454 kts
2026-04-23 06:43 14.18080 108.15793 38947 ft 454 kts
2026-04-23 06:43 14.24376 108.15914 38954 ft 454 kts
2026-04-23 06:44 14.30738 108.16050 38956 ft 454 kts
2026-04-23 06:44 14.37035 108.16192 38951 ft 455 kts
2026-04-23 06:45 14.43403 108.16334 38944 ft 455 kts
2026-04-23 06:45 14.49755 108.16475 38945 ft 455 kts
2026-04-23 06:46 14.56056 108.16614 38957 ft 454 kts
2026-04-23 06:46 14.62396 108.16753 38979 ft 455 kts
2026-04-23 06:47 14.68701 108.16891 39002 ft 446 kts
2026-04-23 06:47 14.71801 108.16959 39013 ft 435 kts
2026-04-23 06:47 14.74806 108.17026 39032 ft 433 kts
2026-04-23 06:48 14.80813 108.17158 39052 ft 432 kts
2026-04-23 06:48 14.86867 108.17292 39054 ft 431 kts
2026-04-23 06:49 14.92868 108.17424 39071 ft 431 kts
2026-04-23 06:49 14.98879 108.17554 39059 ft 432 kts
2026-04-23 06:50 15.04878 108.17685 39048 ft 433 kts
2026-04-23 06:50 15.10934 108.17820 39023 ft 433 kts
2026-04-23 06:51 15.16928 108.17953 38991 ft 432 kts
2026-04-23 06:51 15.22979 108.18085 38966 ft 433 kts
2026-04-23 06:52 15.28997 108.18216 38943 ft 433 kts
2026-04-23 06:52 15.35050 108.18346 38912 ft 434 kts
2026-04-23 06:53 15.41112 108.18475 38887 ft 435 kts
2026-04-23 06:53 15.47161 108.18605 38857 ft 435 kts
2026-04-23 06:54 15.53172 108.18735 38321 ft 425 kts
2026-04-23 06:54 15.56132 108.18798 37522 ft 427 kts
2026-04-23 06:54 15.59112 108.18862 36808 ft 427 kts
2026-04-23 06:55 15.62092 108.18917 35899 ft 432 kts
2026-04-23 06:55 15.65091 108.18973 34555 ft 446 kts
2026-04-23 06:55 15.67201 108.19016 33725 ft 452 kts
2026-04-23 06:55 15.71355 108.19109 32935 ft 445 kts
2026-04-23 06:56 15.74450 108.19179 32580 ft 436 kts
2026-04-23 06:56 15.77440 108.19244 32110 ft 431 kts
2026-04-23 06:56 15.80436 108.19309 31838 ft 421 kts
2026-04-23 06:56 15.83347 108.19372 31199 ft 417 kts
2026-04-23 06:57 15.86240 108.19433 30049 ft 423 kts
2026-04-23 06:57 15.89212 108.19496 28780 ft 429 kts
2026-04-23 06:57 15.92182 108.19558 27533 ft 435 kts
2026-04-23 06:57 15.95197 108.19621 26455 ft 434 kts
2026-04-23 06:58 15.98204 108.19682 25531 ft 430 kts
2026-04-23 06:58 16.01204 108.19744 24637 ft 425 kts
2026-04-23 06:58 16.04104 108.19805 23763 ft 420 kts
2026-04-23 06:58 16.07021 108.19922 22870 ft 416 kts
2026-04-23 06:59 16.09902 108.20153 21989 ft 412 kts
2026-04-23 06:59 16.12713 108.20401 21163 ft 408 kts
2026-04-23 06:59 16.15525 108.20643 20365 ft 403 kts
2026-04-23 06:59 16.18313 108.20872 19578 ft 397 kts
2026-04-23 07:00 16.21058 108.21093 18809 ft 392 kts
2026-04-23 07:00 16.23758 108.21309 18048 ft 388 kts
2026-04-23 07:00 16.26404 108.21518 17303 ft 383 kts
2026-04-23 07:00 16.29047 108.21729 16557 ft 379 kts
2026-04-23 07:01 16.31667 108.21935 15802 ft 375 kts
2026-04-23 07:01 16.34256 108.22127 15099 ft 371 kts
2026-04-23 07:01 16.36768 108.21797 14699 ft 355 kts 341°
2026-04-23 07:01 16.38924 108.20694 14439 ft 337 kts 323°
2026-04-23 07:02 16.40567 108.19057 14173 ft 320 kts 306°
2026-04-23 07:02 16.41640 108.17084 13940 ft 305 kts 289°
2026-04-23 07:02 16.42126 108.15019 13707 ft 291 kts 275°
2026-04-23 07:02 16.42084 108.12921 13159 ft 290 kts 259°
2026-04-23 07:03 16.41517 108.10922 12599 ft 289 kts 245°
2026-04-23 07:03 16.40479 108.09132 11843 ft 295 kts 230°
2026-04-23 07:03 16.38985 108.07655 11145 ft 297 kts 215°
2026-04-23 07:03 16.37195 108.06642 10608 ft 293 kts 201°
2026-04-23 07:04 16.35224 108.06142 10045 ft 291 kts 188°
2026-04-23 07:04 16.33237 108.06139 9482 ft 290 kts 168°
2026-04-23 07:04 16.31335 108.06844 8957 ft 288 kts 156°
2026-04-23 07:04 16.29578 108.07826 8411 ft 287 kts 149°
2026-04-23 07:05 16.27876 108.08910 7862 ft 286 kts 150°
2026-04-23 07:05 16.26117 108.09874 7312 ft 285 kts 154°
2026-04-23 07:05 16.24335 108.10763 6770 ft 285 kts 154°
2026-04-23 07:05 16.22551 108.11631 6380 ft 284 kts 155°
2026-04-23 07:06 16.20736 108.12434 6001 ft 283 kts 157°
2026-04-23 07:06 16.18908 108.13216 5632 ft 282 kts 158°
2026-04-23 07:06 16.17079 108.13994 5259 ft 281 kts 157°
2026-04-23 07:06 16.15322 108.14802 5020 ft 278 kts 153°
2026-04-23 07:07 16.13577 108.15733 5005 ft 279 kts 152°
2026-04-23 07:07 16.11859 108.16683 5003 ft 278 kts 151°
2026-04-23 07:07 16.10134 108.17612 5001 ft 279 kts 153°
2026-04-23 07:07 16.08377 108.18488 4998 ft 279 kts 154°
2026-04-23 07:08 16.06633 108.19344 4995 ft 278 kts 154°
2026-04-23 07:08 16.04863 108.20209 4993 ft 278 kts 154°
2026-04-23 07:08 16.03119 108.21062 4993 ft 278 kts 154°
2026-04-23 07:08 16.01351 108.21927 4993 ft 278 kts 154°
2026-04-23 07:09 15.99586 108.22770 4989 ft 278 kts 156°
2026-04-23 07:09 15.97791 108.23552 4983 ft 278 kts 156°
2026-04-23 07:09 15.96013 108.24345 4976 ft 278 kts 154°
2026-04-23 07:09 15.94264 108.25186 4976 ft 278 kts 154°
2026-04-23 07:10 15.92508 108.26041 4984 ft 278 kts 154°
2026-04-23 07:10 15.90734 108.26907 4984 ft 278 kts 154°
2026-04-23 07:10 15.88980 108.27764 4994 ft 279 kts 154°
2026-04-23 07:10 15.87209 108.28629 4991 ft 279 kts 154°
2026-04-23 07:11 15.85450 108.29488 4992 ft 278 kts 154°
2026-04-23 07:11 15.83705 108.30339 4998 ft 273 kts 154°
2026-04-23 07:11 15.82023 108.31158 4998 ft 257 kts 154°
2026-04-23 07:12 15.78959 108.32644 4896 ft 231 kts 154°
2026-04-23 07:12 15.77540 108.33334 4893 ft 214 kts 155°
2026-04-23 07:12 15.76177 108.33656 4908 ft 191 kts 181°
2026-04-23 07:12 15.75008 108.33249 4836 ft 167 kts 219°
2026-04-23 07:13 15.74463 108.32243 4764 ft 157 kts 266°
2026-04-23 07:13 15.74747 108.31209 4696 ft 149 kts 313°
2026-04-23 07:13 15.75567 108.30617 4669 ft 140 kts 325°
2026-04-23 07:13 15.76317 108.29984 4644 ft 142 kts 323°
2026-04-23 07:14 15.77107 108.29333 4682 ft 147 kts 323°
2026-04-23 07:14 15.77934 108.28665 4714 ft 151 kts 322°
2026-04-23 07:14 15.78750 108.27984 4671 ft 150 kts 323°
2026-04-23 07:14 15.79577 108.27312 4574 ft 153 kts 324°
2026-04-23 07:15 15.80428 108.26635 4489 ft 153 kts 323°
2026-04-23 07:15 15.81283 108.25951 4307 ft 153 kts 324°
2026-04-23 07:15 15.82117 108.25249 4105 ft 153 kts 320°
2026-04-23 07:15 15.82891 108.24519 3885 ft 151 kts 321°
2026-04-23 07:16 15.83677 108.23834 3711 ft 145 kts 322°
2026-04-23 07:16 15.84510 108.23283 3495 ft 140 kts 340°
2026-04-23 07:16 15.85427 108.22941 3260 ft 139 kts 345°
2026-04-23 07:16 15.86365 108.22768 3026 ft 136 kts 353°
2026-04-23 07:17 15.87303 108.22626 2827 ft 134 kts 353°
2026-04-23 07:17 15.88219 108.22450 2663 ft 134 kts 353°
2026-04-23 07:17 15.89149 108.22282 2542 ft 137 kts 353°
2026-04-23 07:17 15.90097 108.22116 2412 ft 137 kts 353°
2026-04-23 07:18 15.91040 108.21937 2263 ft 139 kts 354°
2026-04-23 07:18 15.92015 108.21777 2100 ft 142 kts 354°
2026-04-23 07:18 15.92659 108.21680 1995 ft 140 kts 356°
2026-04-23 07:18 15.93935 108.21485 1763 ft 137 kts 355°
2026-04-23 07:19 15.94874 108.21334 1591 ft 134 kts 354°
2026-04-23 07:19 15.95790 108.21174 1424 ft 133 kts 354°
2026-04-23 07:19 15.96719 108.21024 1275 ft 136 kts 355°
2026-04-23 07:19 15.97662 108.20883 1140 ft 138 kts 354°
2026-04-23 07:20 15.98624 108.20736 1018 ft 140 kts 354°
2026-04-23 07:20 15.99596 108.20564 870 ft 141 kts 353°
2026-04-23 07:20 16.00573 108.20386 700 ft 141 kts 354°
2026-04-23 07:20 16.01531 108.20229 492 ft 139 kts 355°
2026-04-23 07:21 16.02483 108.20096 275 ft 138 kts 356°
2026-04-23 07:21 16.03442 108.19974 83 ft 136 kts 355°
2026-04-23 07:21 16.04282 108.19862 64 ft 99 kts 352°
2026-04-23 07:21 16.04795 108.19782 61 ft 49 kts 352°
2026-04-23 07:22 16.05087 108.19739 60 ft 40 kts 352°
2026-04-23 07:22 16.05360 108.19698 59 ft 38 kts 352°
2026-04-23 07:22 16.05614 108.19664 58 ft 36 kts 353°
2026-04-23 07:22 16.05723 108.19765 56 ft 17 kts 104°
2026-04-23 07:23 16.05745 108.19888 54 ft 17 kts 77°
2026-04-23 07:23 16.05708 108.19988 52 ft 17 kts 160°
2026-04-23 07:23 16.05598 108.20003 52 ft 12 kts 172°
2026-04-23 07:23 16.05509 108.20016 52 ft 13 kts 174°
2026-04-23 07:24 16.05420 108.20028 53 ft 12 kts 171°
2026-04-23 07:24 16.05336 108.20042 55 ft 11 kts 170°
2026-04-23 07:24 16.05251 108.20055 55 ft 12 kts 173°
2026-04-23 07:24 16.05209 108.20083 55 ft 7 kts 85°
2026-04-23 07:25 16.05216 108.20133 54 ft 5 kts 84°
2026-04-23 07:25 16.05221 108.20175 54 ft 6 kts 82°
2026-04-23 07:25 16.05223 108.20187 54 ft 1 kts 82°
2026-04-23 07:25 16.05223 108.20193 54 ft 0 kts 81°